Tracking 23758 objects as of 28-Oct-2021
HD Live streaming from Space Station
objects crossing your sky now

OBJECT E

Track OBJECT E now!
10-day predictions


NORAD ID: 43853
Int'l Code: 2018-104E
Perigee: 472.8 km
Apogee: 495.3 km
Inclination: 85.0 °
Period: 94.1 minutes
Semi major axis: 6855 km
RCS: Unknown
Launch date: December 16, 2018
Source: United States (US)
Launch site: Rocket Lab Launch Complex (RLLC)
aabbcc
Your satellite tracking list
Your tracking list is empty




NASA's NSSDC Master Catalog

Two Line Element Set (TLE):
1 43853U 18104E   21300.20681773  .00013968  00000-0  48306-3 0  9998
2 43853  85.0329 203.6195 0016443  28.4661 331.7479 15.29638065159344
Source of the keplerian elements: Caltech